| time (UTC) | temp C | wind direction | speed KPH | gust KPH | rain 1hr cm | rain 24hr cm | rain mn cm | humidity % | barometer mb |
| 20260508185517 | 11 | 0 | 6.4 | 17.7 | 0.00 | 0.58 | 0.00 | 35 | 1021.2 |
| 20260508184517 | 10 | 68 | 11.3 | 25.7 | 0.00 | 0.64 | 0.00 | 35 | 1020.4 |
| 20260508183517 | 10 | 0 | 12.9 | 27.4 | 0.00 | 0.69 | 0.00 | 34 | 1021.3 |
| 20260508182517 | 10 | 68 | 9.7 | 24.1 | 0.00 | 0.76 | 0.00 | 34 | 1021.3 |
| 20260508181517 | 9 | 0 | 11.3 | 25.7 | 0.00 | 0.84 | 0.00 | 35 | 1020.8 |
| 20260508180517 | 10 | 0 | 11.3 | 25.7 | 0.00 | 0.89 | 0.00 | 34 | 1022.1 |
| 20260508175517 | 10 | 45 | 6.4 | 19.3 | 0.00 | 0.89 | 0.00 | 38 | 1022.4 |
| 20260508174517 | 9 | 68 | 11.3 | 25.7 | 0.00 | 0.89 | 0.00 | 37 | 1021.7 |
| 20260508173517 | 9 | 23 | 4.8 | 19.3 | 0.00 | 0.91 | 0.00 | 40 | 1021.8 |
| 20260508172517 | 9 | 68 | 11.3 | 25.7 | 0.00 | 0.91 | 0.00 | 40 | 1021.9 |
| 20260508171517 | 8 | 0 | 14.5 | 29.0 | 0.00 | 0.91 | 0.00 | 39 | 1021.9 |
| 20260508170557 | 9 | 0 | 9.7 | 33.8 | 0.00 | 0.91 | 0.00 | 43 | 1022.1 |
| 20260508165517 | 8 | 90 | 17.7 | 37.0 | 0.00 | 0.91 | 0.00 | 42 | 1022.1 |
| 20260508164516 | 8 | 0 | 8.0 | 20.9 | 0.00 | 0.91 | 0.00 | 44 | 1021.7 |
| 20260508163517 | 8 | 0 | 14.5 | 29.0 | 0.00 | 0.91 | 0.00 | 44 | 1021.0 |
| 20260508162517 | 8 | 0 | 11.3 | 27.4 | 0.00 | 0.91 | 0.00 | 44 | 1021.0 |
| 20260508161516 | 7 | 0 | 17.7 | 40.2 | 0.00 | 0.91 | 0.00 | 44 | 1020.4 |
| 20260508160517 | 7 | 45 | 11.3 | 30.6 | 0.00 | 0.91 | 0.00 | 46 | 1020.6 |
| 20260508155517 | 7 | 0 | 12.9 | 27.4 | 0.00 | 0.91 | 0.00 | 47 | 1020.4 |
| 20260508154517 | 7 | 0 | 14.5 | 30.6 | 0.00 | 0.91 | 0.00 | 47 | 1020.3 |
| 20260508153537 | 7 | 0 | 9.7 | 25.7 | 0.00 | 0.91 | 0.00 | 49 | 1019.7 |
| 20260508152537 | 6 | 0 | 9.7 | 22.5 | 0.00 | 0.91 | 0.00 | 49 | 1019.2 |
| 20260508151517 | 6 | 0 | 17.7 | 37.0 | 0.00 | 0.91 | 0.00 | 48 | 1019.3 |
| 20260508150536 | 6 | 0 | 11.3 | 27.4 | 0.00 | 0.91 | 0.00 | 47 | 1019.3 |
| 20260508145536 | 6 | 0 | 12.9 | 27.4 | 0.00 | 0.91 | 0.00 | 47 | 1019.2 |
| 20260508144516 | 6 | 0 | 11.3 | 24.1 | 0.00 | 0.91 | 0.00 | 49 | 1019.2 |
| 20260508143516 | 5 | 0 | 16.1 | 27.4 | 0.00 | 0.91 | 0.00 | 49 | 1018.6 |
| 20260508142536 | 5 | 0 | 11.3 | 20.9 | 0.00 | 0.91 | 0.00 | 52 | 1018.7 |
| 20260508141516 | 5 | 0 | 6.4 | 16.1 | 0.00 | 0.91 | 0.00 | 55 | 1018.7 |
| 20260508140516 | 4 | 0 | 9.7 | 22.5 | 0.00 | 0.91 | 0.00 | 56 | 1019.3 |
| 20260508135518 | 3 | 0 | 3.2 | 8.0 | 0.00 | 0.91 | 0.00 | 61 | 1018.8 |
| 20260508134516 | 4 | 45 | 3.2 | 11.3 | 0.00 | 0.91 | 0.00 | 61 | 1018.9 |
| 20260508133516 | 4 | 45 | 9.7 | 20.9 | 0.00 | 0.91 | 0.00 | 55 | 1019.4 |
| 20260508132536 | 4 | 68 | 8.0 | 20.9 | 0.00 | 0.91 | 0.00 | 55 | 1019.4 |
| 20260508131516 | 4 | 90 | 11.3 | 24.1 | 0.00 | 0.91 | 0.00 | 55 | 1019.3 |
| 20260508130536 | 4 | 45 | 6.4 | 14.5 | 0.00 | 0.91 | 0.00 | 54 | 1020.5 |
| 20260508125516 | 4 | 90 | 8.0 | 17.7 | 0.00 | 0.91 | 0.00 | 54 | 1020.5 |
| 20260508124516 | 4 | 90 | 3.2 | 12.9 | 0.00 | 0.91 | 0.00 | 54 | 1020.4 |
| 20260508123536 | 3 | 113 | 4.8 | 14.5 | 0.00 | 0.91 | 0.00 | 55 | 1020.5 |
| 20260508122536 | 3 | 90 | 8.0 | 19.3 | 0.00 | 0.91 | 0.00 | 55 | 1020.3 |
| 20260508121516 | 3 | 68 | 4.8 | 11.3 | 0.00 | 0.91 | 0.00 | 54 | 1020.2 |
| 20260508120516 | 4 | 68 | 9.7 | 24.1 | 0.00 | 0.91 | 0.00 | 54 | 1020.6 |
| 20260508115516 | 4 | 0 | 11.3 | 17.7 | 0.00 | 0.91 | 0.00 | 54 | 1020.5 |
| 20260508114516 | 3 | 45 | 4.8 | 14.5 | 0.00 | 0.91 | 0.00 | 55 | 1020.5 |
| 20260508113516 | 4 | 45 | 6.4 | 14.5 | 0.00 | 0.91 | 0.00 | 55 | 1021.1 |
| 20260508112516 | 4 | 0 | 8.0 | 19.3 | 0.00 | 0.91 | 0.00 | 54 | 1021.0 |
| 20260508111515 | 4 | 0 | 8.0 | 17.7 | 0.00 | 0.91 | 0.00 | 54 | 1021.0 |
| 20260508110556 | 4 | 45 | 9.7 | 19.3 | 0.00 | 0.91 | 0.00 | 55 | 1021.1 |
| 20260508105515 | 4 | 68 | 11.3 | 20.9 | 0.00 | 0.91 | 0.00 | 54 | 1021.0 |
| 20260508104516 | 4 | 0 | 11.3 | 20.9 | 0.00 | 0.91 | 0.00 | 55 | 1021.1 |
| 20260508103555 | 4 | 0 | 6.4 | 20.9 | 0.00 | 0.91 | 0.00 | 56 | 1021.0 |
| 20260508102516 | 4 | 0 | 11.3 | 27.4 | 0.00 | 0.91 | 0.00 | 55 | 1021.1 |
| 20260508101515 | 4 | 0 | 11.3 | 27.4 | 0.00 | 0.91 | 0.00 | 57 | 1021.0 |
| 20260508100515 | 4 | 0 | 8.0 | 19.3 | 0.00 | 0.91 | 0.00 | 58 | 1020.0 |
| 20260508095515 | 3 | 0 | 8.0 | 20.9 | 0.00 | 0.91 | 0.00 | 58 | 1020.0 |
| 20260508094516 | 3 | 0 | 4.8 | 14.5 | 0.00 | 0.91 | 0.00 | 59 | 1020.0 |
| 20260508093515 | 3 | 315 | 4.8 | 12.9 | 0.00 | 0.91 | 0.00 | 61 | 1019.6 |
| 20260508092536 | 4 | 45 | 1.6 | 6.4 | 0.00 | 0.91 | 0.00 | 55 | 1020.3 |
| 20260508091515 | 4 | 338 | 3.2 | 11.3 | 0.00 | 0.91 | 0.00 | 55 | 1020.4 |
| 20260508090516 | 4 | 0 | 4.8 | 14.5 | 0.00 | 0.91 | 0.00 | 55 | 1020.5 |
| 20260508085516 | 4 | 45 | 4.8 | 9.7 | 0.00 | 0.91 | 0.00 | 55 | 1020.7 |
| 20260508084535 | 4 | 68 | 3.2 | 8.0 | 0.00 | 0.91 | 0.00 | 55 | 1020.7 |
| 20260508083515 | 4 | 68 | 6.4 | 12.9 | 0.00 | 0.91 | 0.00 | 57 | 1020.3 |
| 20260508082515 | 4 | 68 | 6.4 | 11.3 | 0.00 | 0.91 | 0.00 | 58 | 1020.5 |
| 20260508081535 | 4 | 68 | 6.4 | 14.5 | 0.00 | 0.91 | 0.00 | 58 | 1020.7 |
| 20260508080517 | 4 | 45 | 6.4 | 14.5 | 0.00 | 0.91 | 0.00 | 57 | 1020.9 |
| 20260508075517 | 4 | 68 | 8.0 | 17.7 | 0.00 | 0.91 | 0.00 | 57 | 1020.8 |
| 20260508074537 | 4 | 0 | 4.8 | 12.9 | 0.00 | 0.91 | 0.00 | 58 | 1020.9 |
| 20260508073517 | 5 | 68 | 6.4 | 16.1 | 0.00 | 0.91 | 0.00 | 58 | 1021.3 |
| 20260508072517 | 5 | 68 | 8.0 | 17.7 | 0.00 | 0.91 | 0.00 | 56 | 1021.4 |
| 20260508071517 | 4 | 0 | 3.2 | 11.3 | 0.00 | 0.91 | 0.00 | 59 | 1021.4 |
| 20260508070517 | 4 | 0 | 6.4 | 14.5 | 0.00 | 0.91 | 0.00 | 59 | 1020.7 |
| 20260508065517 | 3 | 0 | 4.8 | 14.5 | 0.00 | 0.91 | 0.00 | 66 | 1020.3 |
| 20260508064517 | 3 | 0 | 8.0 | 17.7 | 0.00 | 0.91 | 0.00 | 62 | 1020.8 |
| 20260508063537 | 3 | 0 | 6.4 | 17.7 | 0.00 | 0.91 | 0.00 | 66 | 1021.1 |
| 20260508062517 | 5 | 0 | 6.4 | 17.7 | 0.00 | 0.91 | 0.00 | 57 | 1021.8 |
| 20260508061517 | 4 | 0 | 4.8 | 17.7 | 0.00 | 0.91 | 0.00 | 59 | 1022.1 |
| 20260508060517 | 3 | 180 | 1.6 | 6.4 | 0.00 | 0.91 | 0.00 | 65 | 1020.8 |
| 20260508055516 | 4 | 135 | 1.6 | 4.8 | 0.00 | 0.91 | 0.91 | 62 | 1021.6 |
| 20260508054515 | 5 | 135 | 6.4 | 17.7 | 0.00 | 0.91 | 0.91 | 57 | 1022.5 |
| 20260508053515 | 5 | 0 | 8.0 | 19.3 | 0.00 | 0.91 | 0.91 | 53 | 1021.6 |
| 20260508052515 | 5 | 68 | 4.8 | 11.3 | 0.00 | 0.91 | 0.91 | 55 | 1021.6 |
| 20260508051536 | 5 | 45 | 4.8 | 16.1 | 0.00 | 0.91 | 0.91 | 55 | 1021.5 |
| 20260508050515 | 5 | 0 | 12.9 | 27.4 | 0.00 | 0.91 | 0.91 | 55 | 1020.9 |
| 20260508045535 | 5 | 23 | 3.2 | 6.4 | 0.00 | 0.91 | 0.91 | 55 | 1021.0 |
| 20260508044535 | 5 | 0 | 6.4 | 12.9 | 0.00 | 0.91 | 0.91 | 55 | 1020.8 |
| 20260508043515 | 5 | 0 | 3.2 | 12.9 | 0.00 | 0.91 | 0.91 | 57 | 1020.3 |
| 20260508042515 | 4 | 315 | 1.6 | 4.8 | 0.00 | 0.91 | 0.91 | 62 | 1019.9 |
| 20260508041515 | 3 | 315 | 1.6 | 6.4 | 0.00 | 0.91 | 0.91 | 64 | 1019.8 |
| 20260508040515 | 3 | 315 | 1.6 | 3.2 | 0.00 | 0.91 | 0.91 | 67 | 1019.2 |
| 20260508035517 | 4 | 248 | 1.6 | 8.0 | 0.00 | 0.91 | 0.91 | 67 | 1019.1 |
| 20260508034515 | 3 | 315 | 4.8 | 14.5 | 0.00 | 0.91 | 0.91 | 67 | 1019.3 |
| 20260508033517 | 3 | 180 | 8.0 | 16.1 | 0.00 | 0.91 | 0.91 | 72 | 1019.1 |
| 20260508032517 | 2 | 180 | 1.6 | 6.4 | 0.00 | 0.91 | 0.91 | 77 | 1019.0 |
| 20260508031517 | 2 | 180 | 3.2 | 8.0 | 0.00 | 0.91 | 0.91 | 79 | 1018.8 |
| 20260508030557 | 2 | 0.0 | 3.2 | 0.00 | 0.91 | 0.91 | 78 | 1019.5 | |
| 20260508025537 | 2 | 315 | 3.2 | 11.3 | 0.00 | 0.91 | 0.91 | 81 | 1019.7 |
| 20260508024517 | 2 | 0 | 4.8 | 8.0 | 0.00 | 0.91 | 0.91 | 80 | 1019.6 |
| 20260508023517 | 2 | 270 | 6.4 | 12.9 | 0.00 | 0.91 | 0.91 | 81 | 1019.6 |
| 20260508022517 | 2 | 293 | 1.6 | 4.8 | 0.00 | 0.91 | 0.91 | 81 | 1019.7 |
| 20260508021517 | 2 | 315 | 4.8 | 11.3 | 0.00 | 0.91 | 0.91 | 81 | 1019.8 |
| 20260508020517 | 3 | 0 | 3.2 | 12.9 | 0.00 | 0.91 | 0.91 | 79 | 1019.3 |
| 20260508015537 | 3 | 68 | 6.4 | 14.5 | 0.00 | 0.91 | 0.91 | 76 | 1019.7 |
| 20260508014517 | 4 | 0 | 6.4 | 16.1 | 0.00 | 0.91 | 0.91 | 71 | 1020.4 |
| 20260508013517 | 4 | 0 | 6.4 | 19.3 | 0.00 | 0.91 | 0.91 | 67 | 1019.2 |
| 20260508012517 | 5 | 0 | 3.2 | 16.1 | 0.00 | 0.91 | 0.91 | 65 | 1019.5 |
| 20260508011517 | 5 | 0 | 9.7 | 20.9 | 0.00 | 0.91 | 0.91 | 63 | 1019.4 |
| 20260508010517 | 5 | 0 | 8.0 | 19.3 | 0.00 | 0.91 | 0.91 | 60 | 1018.8 |
| 20260508005516 | 6 | 0 | 9.7 | 24.1 | 0.00 | 0.91 | 0.91 | 58 | 1019.8 |
| 20260508004537 | 7 | 0 | 9.7 | 24.1 | 0.00 | 0.91 | 0.91 | 50 | 1020.3 |
| 20260508003516 | 7 | 0 | 9.7 | 20.9 | 0.00 | 0.94 | 0.91 | 48 | 1019.9 |
| 20260508002516 | 7 | 0 | 4.8 | 16.1 | 0.00 | 0.94 | 0.91 | 47 | 1019.6 |
| 20260508001517 | 7 | 0 | 8.0 | 22.5 | 0.00 | 0.94 | 0.91 | 45 | 1020.3 |
| 20260508000517 | 8 | 0 | 9.7 | 22.5 | 0.00 | 0.94 | 0.91 | 45 | 1020.7 |
| 20260507235517 | 8 | 0 | 11.3 | 22.5 | 0.00 | 0.94 | 0.91 | 44 | 1020.8 |
| 20260507234517 | 8 | 0 | 16.1 | 33.8 | 0.00 | 0.97 | 0.91 | 42 | 1020.7 |
| 20260507233517 | 8 | 0 | 11.3 | 24.1 | 0.00 | 0.97 | 0.91 | 41 | 1021.2 |
| 20260507232516 | 8 | 0 | 6.4 | 16.1 | 0.00 | 0.99 | 0.91 | 41 | 1021.2 |
| 20260507231516 | 9 | 0 | 9.7 | 27.4 | 0.00 | 0.99 | 0.91 | 41 | 1021.3 |
| 20260507230516 | 9 | 0 | 11.3 | 25.7 | 0.00 | 0.99 | 0.91 | 41 | 1021.4 |
| 20260507225517 | 9 | 0 | 14.5 | 30.6 | 0.00 | 0.99 | 0.91 | 41 | 1021.2 |
| 20260507224516 | 9 | 0 | 8.0 | 20.9 | 0.00 | 1.02 | 0.91 | 39 | 1021.4 |
| 20260507223516 | 9 | 0 | 8.0 | 17.7 | 0.00 | 1.02 | 0.91 | 41 | 1020.8 |
| 20260507222536 | 9 | 0 | 6.4 | 16.1 | 0.00 | 1.02 | 0.91 | 41 | 1021.0 |
| 20260507221516 | 8 | 0 | 9.7 | 25.7 | 0.00 | 1.04 | 0.91 | 41 | 1021.1 |
| 20260507220516 | 8 | 0 | 12.9 | 29.0 | 0.00 | 1.07 | 0.91 | 43 | 1021.1 |
| 20260507215516 | 8 | 0 | 16.1 | 37.0 | 0.03 | 1.07 | 0.91 | 43 | 1021.6 |
| 20260507214517 | 8 | 0 | 11.3 | 29.0 | 0.03 | 1.07 | 0.91 | 42 | 1021.9 |
| 20260507213516 | 8 | 0 | 11.3 | 25.7 | 0.03 | 1.07 | 0.91 | 41 | 1022.0 |
| 20260507212516 | 8 | 0 | 11.3 | 19.3 | 0.05 | 1.07 | 0.91 | 41 | 1022.0 |
| 20260507211516 | 8 | 68 | 11.3 | 22.5 | 0.08 | 1.07 | 0.91 | 42 | 1022.4 |
| 20260507210516 | 8 | 0 | 8.0 | 24.1 | 0.10 | 1.07 | 0.91 | 41 | 1022.5 |
| 20260507205516 | 8 | 0 | 12.9 | 27.4 | 0.13 | 1.04 | 0.89 | 43 | 1023.0 |
| 20260507204516 | 7 | 0 | 16.1 | 30.6 | 0.18 | 1.04 | 0.89 | 43 | 1022.3 |
| 20260507203516 | 8 | 0 | 12.9 | 29.0 | 0.25 | 1.04 | 0.89 | 43 | 1022.6 |
| 20260507202556 | 8 | 0 | 11.3 | 22.5 | 0.30 | 1.02 | 0.86 | 43 | 1022.8 |
| 20260507201516 | 7 | 0 | 11.3 | 33.8 | 0.33 | 0.99 | 0.84 | 46 | 1022.1 |
| 20260507200516 | 7 | 0 | 16.1 | 29.0 | 0.38 | 0.97 | 0.81 | 45 | 1022.2 |
| 20260507195516 | 7 | 0 | 14.5 | 38.6 | 0.43 | 0.91 | 0.76 | 45 | 1022.3 |
| 20260507194516 | 7 | 0 | 14.5 | 27.4 | 0.43 | 0.86 | 0.71 | 46 | 1022.3 |
| 20260507193536 | 7 | 0 | 19.3 | 43.5 | 0.41 | 0.79 | 0.64 | 49 | 1022.2 |
| 20260507192516 | 7 | 0 | 16.1 | 38.6 | 0.41 | 0.71 | 0.56 | 49 | 1021.8 |
| 20260507191516 | 7 | 0 | 19.3 | 38.6 | 0.43 | 0.66 | 0.51 | 49 | 1021.6 |
| 20260507190536 | 6 | 0 | 11.3 | 24.1 | 0.41 | 0.58 | 0.43 | 48 | 1021.4 |